Regional Weather Roundup
Issued by NWS

Home | Current Version | Previous Version | Text Only | Print | Product List | Glossary Off
Versions: 1 2 3 4 5 6 7 8 9 10 11 12 13 14 15 16 17 18 19 20 21 22 23 24 25 26 27 28

000
ASUS45 KBOI 201010
RWRID

IDAHO REGIONAL WEATHER ROUNDUP
NATIONAL WEATHER SERVICE BOISE ID
400 AM MDT SUN MAY 20 2018

NOTE: "FAIR" INDICATES FEW OR NO CLOUDS BELOW 12000 FEET
WITH NO SIGNIFICANT WEATHER AND/OR OBSTRUCTIONS TO VISIBILITY

IDZ012-014-201100-
SOUTHWEST IDAHO


CITY           SKY/WX    TMP DP  RH WIND       PRES   REMARKS
BOISE          MOCLDY    63  45  51 E8        29.86F
CALDWELL       MOCLDY    59  51  75 CALM      29.86S
MOUNTAIN HOME  CLOUDY    64  47  54 E16       29.87S
$$

IDZ016-017-201100-
SOUTHCENTRAL IDAHO


CITY           SKY/WX    TMP DP  RH WIND       PRES   REMARKS
BURLEY         CLEAR     55  46  71 NE9       29.94F
JEROME         MOCLDY    56  47  71 NE20      29.93F
TWIN FALLS     PTCLDY    50  47  89 NE7       29.93F
$$

IDZ019>023-201100-
SOUTHEAST IDAHO


CITY           SKY/WX    TMP DP  RH WIND       PRES   REMARKS
IDAHO FALLS    CLEAR     43  42  97 NE5       30.01F
POCATELLO      PTCLDY    45  43  93 CALM      29.98F
REXBURG        PTCLDY    48  42  80 NE6       30.03F
$$

IDZ006-010-011-018-031-032-201100-
CENTRAL IDAHO MOUNTAINS


CITY           SKY/WX    TMP DP  RH WIND       PRES   REMARKS
MCCALL         CLOUDY    48  41  76 E7        29.97R
HAILEY         MOCLDY    46  41  81 NW9       30.04S
STANLEY          N/A     36  34  92 S3        30.07S
SALMON         CLEAR     47  42  83 SE3       30.01S
CHALLIS        CLEAR     47  41  80 SE3       30.02R
$$

IDZ002-004-006-007-026-201100-
NORTHERN IDAHO


CITY           SKY/WX    TMP DP  RH WIND       PRES   REMARKS
LEWISTON       PTCLDY    57  54  89 SE3       29.88S
LOWELL           N/A     49  49 100 N3        29.94S
COEUR D`ALENE  CLEAR     49  44  83 E7        29.93S
MULLAN PASS    CLOUDY    45  40  82 S6        30.01F
$$




USA.gov is the U.S. government's official web portal to all federal, state and local government web resources and services.